TAP554M LPPT-EDDM

Flight info

Callsign TAP554M
Flight time 2h 43m
Altitude 34000
Route IXIDA DCT RIVRO DCT TOSDI DCT ZMR DCT NEA DCT DGO DCT LPA DCT GOSVI DCT TOPTU/N0446F360 DCT TOU DCT GAI DCT MEN DCT NINUN DCT LATAM DCT ETREK DCT LTP DCT SOPLO DCT OMASI DCT KINNI DCT LAMUR DCT KORED DCT NUNRI/N0374F210 T103 BETOS BETOS1B
Aircraft A320/M-SDE3FGHIRWY/LB1

Departure

Time 2026-05-05 14:26
Airport Lisbon Humberto Delgado Airport (LPPT)

Arrival

Time 2026-05-05 17:09
Airport Munich Airport (EDDM)
Time Latitude Longitude Altitude Speed Heading
2026-05-05 14:06 38.76459 -9.13356 345 ft 0 kts 73°
2026-05-05 14:18 38.76458 -9.13362 345 ft 4 kts 73°
2026-05-05 14:18 38.76449 -9.13394 350 ft 4 kts 55°
2026-05-05 14:18 38.76431 -9.13412 355 ft 3 kts 350°
2026-05-05 14:19 38.76426 -9.13411 348 ft 0 kts 344°
2026-05-05 14:22 38.76427 -9.13411 348 ft 0 kts 344°
2026-05-05 14:22 38.76437 -9.13415 355 ft 5 kts 343°
2026-05-05 14:22 38.76463 -9.13424 351 ft 6 kts 343°
2026-05-05 14:23 38.76511 -9.13442 345 ft 8 kts 344°
2026-05-05 14:23 38.76566 -9.13463 351 ft 9 kts 343°
2026-05-05 14:23 38.76624 -9.13486 349 ft 10 kts 336°
2026-05-05 14:23 38.76638 -9.13585 348 ft 14 kts 256°
2026-05-05 14:24 38.76618 -9.13709 348 ft 15 kts 258°
2026-05-05 14:24 38.76595 -9.13851 349 ft 17 kts 258°
2026-05-05 14:24 38.76564 -9.14002 348 ft 18 kts 244°
2026-05-05 14:24 38.76496 -9.14129 352 ft 18 kts 255°
2026-05-05 14:25 38.76533 -9.14288 335 ft 19 kts 294°
2026-05-05 14:25 38.76578 -9.14408 333 ft 8 kts 317°
2026-05-05 14:25 38.76643 -9.14387 334 ft 21 kts 24°
2026-05-05 14:25 38.77009 -9.14196 348 ft 88 kts 22°
2026-05-05 14:26 38.77749 -9.13800 364 ft 140 kts 21°
2026-05-05 14:26 38.78765 -9.13257 576 ft 164 kts 19°
2026-05-05 14:26 38.79795 -9.12688 1299 ft 160 kts 21°
2026-05-05 14:26 38.80843 -9.12107 1766 ft 172 kts 17°
2026-05-05 14:27 38.81978 -9.11394 2115 ft 193 kts 27°
2026-05-05 14:27 38.83074 -9.10249 2494 ft 214 kts 39°
2026-05-05 14:27 38.84193 -9.08884 2807 ft 237 kts 39°
2026-05-05 14:27 38.85427 -9.07362 3320 ft 252 kts 40°
2026-05-05 14:28 38.86692 -9.05774 4128 ft 257 kts 40°
2026-05-05 14:28 38.87969 -9.04151 5010 ft 258 kts 41°
2026-05-05 14:28 38.89244 -9.02511 5818 ft 263 kts 42°
2026-05-05 14:28 38.90560 -9.00847 6610 ft 266 kts 41°
2026-05-05 14:29 38.91903 -8.99187 7400 ft 269 kts 40°
2026-05-05 14:29 38.93268 -8.97509 8150 ft 274 kts 40°
2026-05-05 14:29 38.94650 -8.95804 8934 ft 277 kts 40°
2026-05-05 14:29 38.96027 -8.94096 9701 ft 281 kts 40°
2026-05-05 14:30 38.97446 -8.92333 10368 ft 289 kts 40°
2026-05-05 14:30 38.98949 -8.90467 10591 ft 312 kts 40°
2026-05-05 14:30 39.00565 -8.88459 10803 ft 333 kts 40°
2026-05-05 14:30 39.02250 -8.86357 11345 ft 342 kts 40°
2026-05-05 14:31 39.03965 -8.84205 11979 ft 346 kts 40°
2026-05-05 14:31 39.05697 -8.82022 12641 ft 351 kts 40°
2026-05-05 14:31 39.07448 -8.79813 13287 ft 356 kts 40°
2026-05-05 14:31 39.09205 -8.77599 13922 ft 360 kts 40°
2026-05-05 14:32 39.10914 -8.75443 14466 ft 364 kts 40°
2026-05-05 14:32 39.12733 -8.73151 15047 ft 367 kts 40°
2026-05-05 14:32 39.14569 -8.70840 15634 ft 371 kts 40°
2026-05-05 14:32 39.16424 -8.68501 16218 ft 374 kts 40°
2026-05-05 14:33 39.18292 -8.66146 16793 ft 378 kts 40°
2026-05-05 14:33 39.20179 -8.63766 17373 ft 381 kts 40°
2026-05-05 14:33 39.22057 -8.61399 17932 ft 384 kts 39°
2026-05-05 14:33 39.23975 -8.58976 18481 ft 388 kts 39°
2026-05-05 14:34 39.25911 -8.56529 18968 ft 391 kts 39°
2026-05-05 14:34 39.27862 -8.54061 19447 ft 395 kts 39°
2026-05-05 14:34 39.29833 -8.51564 19925 ft 399 kts 39°
2026-05-05 14:34 39.31824 -8.49041 20401 ft 403 kts 39°
2026-05-05 14:35 39.33830 -8.46494 20872 ft 407 kts 39°
2026-05-05 14:35 39.35855 -8.43917 21346 ft 410 kts 39°
2026-05-05 14:35 39.37871 -8.41351 21794 ft 414 kts 39°
2026-05-05 14:35 39.39936 -8.38723 22236 ft 418 kts 39°
2026-05-05 14:36 39.42019 -8.36075 22662 ft 422 kts 39°
2026-05-05 14:36 39.44125 -8.33397 23100 ft 426 kts 39°
2026-05-05 14:36 39.46247 -8.30694 23504 ft 430 kts 39°
2026-05-05 14:36 39.48386 -8.27962 23862 ft 434 kts 39°
2026-05-05 14:37 39.50540 -8.25205 24214 ft 437 kts 39°
2026-05-05 14:37 39.52705 -8.22429 24564 ft 440 kts 39°
2026-05-05 14:37 39.54886 -8.19635 24917 ft 442 kts 39°
2026-05-05 14:37 39.57077 -8.16829 25248 ft 444 kts 39°
2026-05-05 14:38 39.59282 -8.14003 25573 ft 447 kts 39°
2026-05-05 14:38 39.61468 -8.11197 25899 ft 450 kts 39°
2026-05-05 14:38 39.63697 -8.08333 26232 ft 452 kts 39°
2026-05-05 14:38 39.65931 -8.05455 26553 ft 454 kts 39°
2026-05-05 14:39 39.68180 -8.02561 26874 ft 456 kts 39°
2026-05-05 14:39 39.70442 -7.99649 27182 ft 459 kts 39°
2026-05-05 14:39 39.71975 -7.97673 27388 ft 460 kts 39°
2026-05-05 14:39 39.72398 -7.97127 27446 ft 461 kts 39°
2026-05-05 14:40 39.73160 -7.96132 27538 ft 462 kts 40°
2026-05-05 14:40 39.75395 -7.93211 27838 ft 464 kts 40°
2026-05-05 14:40 39.77712 -7.90203 28126 ft 466 kts 40°
2026-05-05 14:40 39.79993 -7.87261 28401 ft 468 kts 39°
2026-05-05 14:41 39.82340 -7.84237 28669 ft 470 kts 39°
2026-05-05 14:41 39.84663 -7.81235 28948 ft 472 kts 40°
2026-05-05 14:41 39.87001 -7.78207 29199 ft 474 kts 40°
2026-05-05 14:41 39.89337 -7.75168 29455 ft 477 kts 40°
2026-05-05 14:42 39.91679 -7.72112 29695 ft 478 kts 40°
2026-05-05 14:42 39.94041 -7.69036 29937 ft 480 kts 39°
2026-05-05 14:42 39.96404 -7.65958 30145 ft 482 kts 40°
2026-05-05 14:42 39.98781 -7.62854 30340 ft 483 kts 39°
2026-05-05 14:43 40.01154 -7.59747 30521 ft 485 kts 39°
2026-05-05 14:43 40.03538 -7.56624 30795 ft 484 kts 39°
2026-05-05 14:43 40.05909 -7.53516 31081 ft 483 kts 39°
2026-05-05 14:43 40.08283 -7.50401 31353 ft 483 kts 39°
2026-05-05 14:44 40.10648 -7.47299 31587 ft 482 kts 39°
2026-05-05 14:44 40.13017 -7.44189 31855 ft 481 kts 39°
2026-05-05 14:44 40.15373 -7.41095 32146 ft 480 kts 39°
2026-05-05 14:44 40.17723 -7.38005 32422 ft 480 kts 39°
2026-05-05 14:45 40.20076 -7.34906 32708 ft 478 kts 39°
2026-05-05 14:45 40.22414 -7.31822 32990 ft 477 kts 39°
2026-05-05 14:45 40.24755 -7.28732 33260 ft 477 kts 39°
2026-05-05 14:45 40.27083 -7.25655 33516 ft 476 kts 39°
2026-05-05 14:46 40.29409 -7.22578 33782 ft 475 kts 39°
2026-05-05 14:46 40.31739 -7.19494 33980 ft 475 kts 39°
2026-05-05 14:46 40.36376 -7.13337 34009 ft 474 kts 39°
2026-05-05 14:47 40.41005 -7.07182 34010 ft 473 kts 39°
2026-05-05 14:47 40.45622 -7.01032 34014 ft 473 kts 38°
2026-05-05 14:48 40.50242 -6.94866 34011 ft 473 kts 38°
2026-05-05 14:48 40.54861 -6.88692 34009 ft 473 kts 38°
2026-05-05 14:49 40.59510 -6.82470 34009 ft 474 kts 38°
2026-05-05 14:49 40.64124 -6.76271 34004 ft 474 kts 38°
2026-05-05 14:50 40.68726 -6.70070 34005 ft 474 kts 38°
2026-05-05 14:50 40.73334 -6.63846 34002 ft 474 kts 38°
2026-05-05 14:51 40.77941 -6.57616 34003 ft 474 kts 38°
2026-05-05 14:51 40.82550 -6.51387 34004 ft 474 kts 38°
2026-05-05 14:52 40.87152 -6.45148 33998 ft 474 kts 38°
2026-05-05 14:52 40.91745 -6.38893 34001 ft 474 kts 38°
2026-05-05 14:53 40.96333 -6.32624 34000 ft 474 kts 38°
2026-05-05 14:53 41.00957 -6.26415 33991 ft 472 kts 36°
2026-05-05 14:54 41.05803 -6.20600 34000 ft 469 kts 33°
2026-05-05 14:54 41.10735 -6.14940 33996 ft 469 kts 34°
2026-05-05 14:55 41.15628 -6.09195 33995 ft 470 kts 35°
2026-05-05 14:55 41.20468 -6.03364 34000 ft 471 kts 36°
2026-05-05 14:56 41.25310 -5.97503 33999 ft 471 kts 36°
2026-05-05 14:56 41.30163 -5.91651 33997 ft 471 kts 36°
2026-05-05 14:57 41.35021 -5.85800 34002 ft 471 kts 36°
2026-05-05 14:57 41.39874 -5.79932 34007 ft 471 kts 36°
2026-05-05 14:58 41.44722 -5.74055 33990 ft 471 kts 37°
2026-05-05 14:58 41.49558 -5.68185 34004 ft 471 kts 37°
2026-05-05 14:59 41.53745 -5.61368 33999 ft 482 kts 56°
2026-05-05 14:59 41.56620 -5.53210 34003 ft 486 kts 62°
2026-05-05 15:00 41.58912 -5.46293 34004 ft 486 kts 62°
2026-05-05 15:00 41.62118 -5.36628 34003 ft 486 kts 62°
2026-05-05 15:01 41.64849 -5.28355 34008 ft 486 kts 63°
2026-05-05 15:01 41.67579 -5.20072 34180 ft 487 kts 63°
2026-05-05 15:02 41.68940 -5.15935 34413 ft 486 kts 63°
2026-05-05 15:02 41.70299 -5.11785 34638 ft 486 kts 63°
2026-05-05 15:02 41.71650 -5.07649 34845 ft 486 kts 63°
2026-05-05 15:02 41.73002 -5.03516 35055 ft 485 kts 63°
2026-05-05 15:03 41.74358 -4.99371 35242 ft 485 kts 63°
2026-05-05 15:03 41.75708 -4.95239 35425 ft 485 kts 63°
2026-05-05 15:03 41.77059 -4.91091 35606 ft 485 kts 64°
2026-05-05 15:03 41.78402 -4.86956 35795 ft 485 kts 64°
2026-05-05 15:04 41.79749 -4.82808 35956 ft 485 kts 64°
2026-05-05 15:04 41.81089 -4.78674 36006 ft 484 kts 64°
2026-05-05 15:04 41.83766 -4.70406 36006 ft 483 kts 64°
2026-05-05 15:05 41.87761 -4.58001 36009 ft 483 kts 64°
2026-05-05 15:06 41.90421 -4.49717 36016 ft 483 kts 64°
2026-05-05 15:06 41.92631 -4.42817 36015 ft 483 kts 65°
2026-05-05 15:07 41.95296 -4.34474 36015 ft 483 kts 65°
2026-05-05 15:07 41.97940 -4.26165 36015 ft 483 kts 65°
2026-05-05 15:08 42.00581 -4.17847 36011 ft 484 kts 65°
2026-05-05 15:08 42.03218 -4.09524 36011 ft 484 kts 64°
2026-05-05 15:09 42.06030 -4.01325 36011 ft 483 kts 62°
2026-05-05 15:09 42.08986 -3.93203 36010 ft 483 kts 62°
2026-05-05 15:10 42.11914 -3.85054 36005 ft 483 kts 63°
2026-05-05 15:10 42.14778 -3.76853 36007 ft 484 kts 63°
2026-05-05 15:11 42.17627 -3.68649 36005 ft 484 kts 63°
2026-05-05 15:11 42.20484 -3.60426 36003 ft 484 kts 63°
2026-05-05 15:12 42.23344 -3.52198 36002 ft 484 kts 63°
2026-05-05 15:12 42.26200 -3.43957 36005 ft 485 kts 63°
2026-05-05 15:13 42.29054 -3.35706 36004 ft 485 kts 64°
2026-05-05 15:13 42.31902 -3.27441 36010 ft 485 kts 64°
2026-05-05 15:14 42.34742 -3.19163 36016 ft 485 kts 64°
2026-05-05 15:14 42.37573 -3.10877 36019 ft 485 kts 64°
2026-05-05 15:15 42.40398 -3.02582 36018 ft 485 kts 64°
2026-05-05 15:15 42.43220 -2.94280 36018 ft 485 kts 64°
2026-05-05 15:16 42.45193 -2.85518 36013 ft 486 kts 83°
2026-05-05 15:16 42.45498 -2.76395 36004 ft 485 kts 90°
2026-05-05 15:17 42.45631 -2.67253 35991 ft 486 kts 90°
2026-05-05 15:17 42.45755 -2.58105 35977 ft 486 kts 90°
2026-05-05 15:18 42.45872 -2.48952 35973 ft 486 kts 90°
2026-05-05 15:18 42.45979 -2.39809 35971 ft 486 kts 90°
2026-05-05 15:19 42.46404 -2.30673 35972 ft 487 kts 79°
2026-05-05 15:19 42.47894 -2.21718 35971 ft 487 kts 77°
2026-05-05 15:20 42.49390 -2.12757 35976 ft 488 kts 78°
2026-05-05 15:20 42.50866 -2.03784 35980 ft 488 kts 78°
2026-05-05 15:21 42.52337 -1.94806 35981 ft 488 kts 78°
2026-05-05 15:21 42.53808 -1.85823 35987 ft 488 kts 78°
2026-05-05 15:22 42.55272 -1.76833 35994 ft 488 kts 78°
2026-05-05 15:22 42.56730 -1.67851 35996 ft 488 kts 78°
2026-05-05 15:23 42.58185 -1.58843 35999 ft 489 kts 78°
2026-05-05 15:23 42.59627 -1.49828 35997 ft 489 kts 78°
2026-05-05 15:24 42.61060 -1.40811 35992 ft 489 kts 79°
2026-05-05 15:24 42.62499 -1.31730 35987 ft 489 kts 79°
2026-05-05 15:25 42.63925 -1.22706 35979 ft 488 kts 79°
2026-05-05 15:25 42.65343 -1.13699 35970 ft 488 kts 79°
2026-05-05 15:26 42.66750 -1.04676 35966 ft 488 kts 79°
2026-05-05 15:26 42.68143 -0.95645 35962 ft 488 kts 79°
2026-05-05 15:27 42.69534 -0.86606 35960 ft 488 kts 79°
2026-05-05 15:27 42.70918 -0.77574 35962 ft 489 kts 79°
2026-05-05 15:28 42.72299 -0.68514 35957 ft 489 kts 80°
2026-05-05 15:28 42.73675 -0.59449 35953 ft 489 kts 80°
2026-05-05 15:29 42.75051 -0.50383 35960 ft 489 kts 80°
2026-05-05 15:29 42.76416 -0.41312 35964 ft 489 kts 80°
2026-05-05 15:30 42.77760 -0.32239 35961 ft 489 kts 81°
2026-05-05 15:30 42.79265 -0.23212 35958 ft 490 kts 72°
2026-05-05 15:31 42.82366 -0.14961 35961 ft 491 kts 53°
2026-05-05 15:31 42.86672 -0.07728 35970 ft 492 kts 50°
2026-05-05 15:32 42.91006 -0.00510 35980 ft 492 kts 50°
2026-05-05 15:32 42.95339 0.06719 35982 ft 492 kts 50°
2026-05-05 15:33 42.99664 0.13964 35984 ft 492 kts 50°
2026-05-05 15:33 43.03981 0.21211 35985 ft 492 kts 50°
2026-05-05 15:34 43.08299 0.28472 35987 ft 492 kts 50°
2026-05-05 15:34 43.12614 0.35748 35983 ft 492 kts 51°
2026-05-05 15:35 43.16919 0.43037 35980 ft 492 kts 51°
2026-05-05 15:35 43.21216 0.50337 35969 ft 492 kts 51°
2026-05-05 15:36 43.25512 0.57641 35967 ft 492 kts 51°
2026-05-05 15:36 43.29807 0.64946 35965 ft 492 kts 51°
2026-05-05 15:37 43.34095 0.72263 35958 ft 492 kts 51°
2026-05-05 15:37 43.38374 0.79595 35960 ft 491 kts 51°
2026-05-05 15:38 43.42651 0.86931 35959 ft 491 kts 51°
2026-05-05 15:38 43.46926 0.94274 35956 ft 491 kts 51°
2026-05-05 15:39 43.50500 1.00427 35957 ft 491 kts 51°
2026-05-05 15:39 43.54762 1.07794 35961 ft 491 kts 51°
2026-05-05 15:40 43.59015 1.15177 35964 ft 491 kts 52°
2026-05-05 15:40 43.63265 1.22570 35969 ft 492 kts 52°
2026-05-05 15:41 43.67516 1.29974 35975 ft 492 kts 52°
2026-05-05 15:41 43.71685 1.37471 35973 ft 492 kts 54°
2026-05-05 15:42 43.75717 1.45113 35972 ft 492 kts 54°
2026-05-05 15:42 43.79723 1.52781 35962 ft 491 kts 54°
2026-05-05 15:43 43.83760 1.60413 35951 ft 491 kts 54°
2026-05-05 15:43 43.87812 1.68033 35941 ft 491 kts 54°
2026-05-05 15:44 43.91858 1.75668 35938 ft 491 kts 54°
2026-05-05 15:44 43.95889 1.83327 35935 ft 491 kts 54°
2026-05-05 15:45 43.99823 1.91084 35937 ft 491 kts 56°
2026-05-05 15:45 44.03671 1.98928 35938 ft 491 kts 56°
2026-05-05 15:46 44.07525 2.06778 35939 ft 491 kts 56°
2026-05-05 15:46 44.11400 2.14602 35940 ft 492 kts 56°
2026-05-05 15:47 44.15290 2.22442 35945 ft 492 kts 56°
2026-05-05 15:47 44.19173 2.30298 35949 ft 492 kts 56°
2026-05-05 15:48 44.23045 2.38171 35950 ft 492 kts 56°
2026-05-05 15:48 44.26908 2.46057 35950 ft 492 kts 56°
2026-05-05 15:49 44.30763 2.53956 35946 ft 492 kts 56°
2026-05-05 15:49 44.34619 2.61863 35947 ft 492 kts 56°
2026-05-05 15:50 44.38496 2.69819 35946 ft 493 kts 56°
2026-05-05 15:50 44.42351 2.77761 35941 ft 492 kts 57°
2026-05-05 15:51 44.46160 2.85651 35935 ft 492 kts 57°
2026-05-05 15:51 44.49988 2.93603 35930 ft 492 kts 57°
2026-05-05 15:52 44.53816 3.01567 35928 ft 493 kts 57°
2026-05-05 15:52 44.57641 3.09538 35928 ft 492 kts 57°
2026-05-05 15:53 44.61437 3.17539 35925 ft 492 kts 58°
2026-05-05 15:53 44.64928 3.25854 35925 ft 491 kts 62°
2026-05-05 15:54 44.68166 3.34310 35916 ft 491 kts 63°
2026-05-05 15:54 44.71432 3.42746 35913 ft 491 kts 62°
2026-05-05 15:55 44.74766 3.51134 35915 ft 491 kts 62°
2026-05-05 15:55 44.78123 3.59502 35907 ft 491 kts 62°
2026-05-05 15:56 44.81462 3.67884 35912 ft 490 kts 62°
2026-05-05 15:56 44.84773 3.76258 35906 ft 490 kts 62°
2026-05-05 15:57 44.88075 3.84659 35896 ft 489 kts 62°
2026-05-05 15:57 44.91371 3.93062 35889 ft 490 kts 62°
2026-05-05 15:58 44.94668 4.01475 35881 ft 490 kts 62°
2026-05-05 15:58 44.97955 4.09891 35876 ft 490 kts 62°
2026-05-05 15:59 45.01242 4.18346 35874 ft 491 kts 63°
2026-05-05 15:59 45.04519 4.26827 35871 ft 492 kts 63°
2026-05-05 16:00 45.07804 4.35324 35870 ft 493 kts 63°
2026-05-05 16:00 45.11094 4.43840 35874 ft 493 kts 63°
2026-05-05 16:01 45.14400 4.52436 35865 ft 494 kts 63°
2026-05-05 16:01 45.17672 4.60982 35881 ft 494 kts 63°
2026-05-05 16:02 45.20941 4.69560 35881 ft 494 kts 63°
2026-05-05 16:02 45.24207 4.78152 35883 ft 495 kts 63°
2026-05-05 16:03 45.27468 4.86754 35881 ft 495 kts 63°
2026-05-05 16:03 45.30723 4.95351 35882 ft 495 kts 63°
2026-05-05 16:04 45.33984 5.03973 35881 ft 495 kts 63°
2026-05-05 16:04 45.37235 5.12614 35882 ft 495 kts 63°
2026-05-05 16:05 45.40468 5.21259 35881 ft 496 kts 63°
2026-05-05 16:05 45.43706 5.29927 35879 ft 496 kts 63°
2026-05-05 16:06 45.46944 5.38617 35886 ft 496 kts 62°
2026-05-05 16:06 45.51012 5.46522 35886 ft 496 kts 44°
2026-05-05 16:07 45.56126 5.53109 35891 ft 495 kts 41°
2026-05-05 16:07 45.61265 5.59661 35889 ft 495 kts 41°
2026-05-05 16:08 45.66385 5.66221 35893 ft 495 kts 41°
2026-05-05 16:08 45.71507 5.72802 35891 ft 495 kts 41°
2026-05-05 16:09 45.76634 5.79382 35897 ft 495 kts 41°
2026-05-05 16:09 45.81757 5.85971 35899 ft 495 kts 41°
2026-05-05 16:10 45.86875 5.92574 35896 ft 494 kts 41°
2026-05-05 16:10 45.91986 5.99188 35890 ft 495 kts 41°
2026-05-05 16:11 45.97097 6.05809 35895 ft 494 kts 41°
2026-05-05 16:12 46.06469 6.17993 35907 ft 494 kts 41°
2026-05-05 16:12 46.10981 6.25403 35918 ft 492 kts 56°
2026-05-05 16:13 46.16883 6.37531 35906 ft 492 kts 56°
2026-05-05 16:13 46.20811 6.45594 35912 ft 491 kts 56°
2026-05-05 16:14 46.28652 6.61775 35908 ft 490 kts 56°
2026-05-05 16:15 46.36450 6.77954 35903 ft 489 kts 56°
2026-05-05 16:16 46.44203 6.94141 35898 ft 489 kts 56°
2026-05-05 16:17 46.50000 7.06316 35893 ft 489 kts 56°
2026-05-05 16:18 46.55886 7.18407 35888 ft 489 kts 49°
2026-05-05 16:18 46.61004 7.24843 35892 ft 486 kts 30°
2026-05-05 16:19 46.63982 7.27165 35890 ft 484 kts 22°
2026-05-05 16:19 46.73163 7.33337 35890 ft 484 kts 23°
2026-05-05 16:20 46.84620 7.43413 35894 ft 485 kts 47°
2026-05-05 16:21 46.88479 7.51407 35888 ft 482 kts 65°
2026-05-05 16:22 46.92974 7.64569 35890 ft 482 kts 65°
2026-05-05 16:23 46.98960 7.82184 35880 ft 482 kts 65°
2026-05-05 16:23 47.03404 7.95394 35879 ft 481 kts 65°
2026-05-05 16:24 47.06355 8.04202 35880 ft 481 kts 65°
2026-05-05 16:25 47.10776 8.17427 35900 ft 480 kts 65°
2026-05-05 16:25 47.15175 8.30627 35899 ft 480 kts 65°
2026-05-05 16:26 47.21000 8.48255 35889 ft 479 kts 66°
2026-05-05 16:27 47.23903 8.57077 35884 ft 479 kts 66°
2026-05-05 16:27 47.26791 8.65897 35889 ft 478 kts 66°
2026-05-05 16:28 47.29671 8.74729 35884 ft 478 kts 66°
2026-05-05 16:28 47.32550 8.83562 35881 ft 478 kts 66°
2026-05-05 16:29 47.35442 8.92454 35877 ft 478 kts 66°
2026-05-05 16:29 47.38276 9.01242 35869 ft 477 kts 66°
2026-05-05 16:30 47.41149 9.10142 35866 ft 477 kts 66°
2026-05-05 16:30 47.43995 9.18986 35865 ft 477 kts 66°
2026-05-05 16:31 47.46821 9.27840 35864 ft 476 kts 66°
2026-05-05 16:31 47.49636 9.36697 35870 ft 476 kts 66°
2026-05-05 16:32 47.52455 9.45562 35866 ft 476 kts 66°
2026-05-05 16:32 47.53387 9.48494 35869 ft 476 kts 66°
2026-05-05 16:33 47.55753 9.55909 35829 ft 478 kts 66°
2026-05-05 16:33 47.57092 9.60470 35264 ft 485 kts 73°
2026-05-05 16:33 47.57972 9.65260 34690 ft 479 kts 82°
2026-05-05 16:34 47.58356 9.70121 34133 ft 474 kts 91°
2026-05-05 16:34 47.58283 9.74973 33541 ft 471 kts 97°
2026-05-05 16:34 47.58088 9.79827 32918 ft 472 kts 97°
2026-05-05 16:34 47.57892 9.84675 32302 ft 472 kts 96°
2026-05-05 16:35 47.57694 9.89536 31703 ft 473 kts 96°
2026-05-05 16:35 47.57494 9.94396 31111 ft 473 kts 96°
2026-05-05 16:35 47.57294 9.99248 30541 ft 473 kts 96°
2026-05-05 16:35 47.57090 10.04111 29982 ft 473 kts 96°
2026-05-05 16:36 47.56880 10.09041 29320 ft 474 kts 96°
2026-05-05 16:36 47.56673 10.13852 28678 ft 475 kts 96°
2026-05-05 16:36 47.56476 10.18442 28085 ft 476 kts 96°
2026-05-05 16:36 47.56261 10.23339 27471 ft 477 kts 96°
2026-05-05 16:37 47.56042 10.28256 26871 ft 479 kts 96°
2026-05-05 16:37 47.55823 10.33180 26281 ft 481 kts 96°
2026-05-05 16:37 47.55601 10.38131 25697 ft 482 kts 96°
2026-05-05 16:37 47.55373 10.43087 25130 ft 483 kts 96°
2026-05-05 16:38 47.55144 10.48061 24591 ft 485 kts 95°
2026-05-05 16:38 47.55262 10.53065 24110 ft 490 kts 83°
2026-05-05 16:38 47.56095 10.57963 23643 ft 494 kts 70°
2026-05-05 16:38 47.57619 10.62530 23131 ft 497 kts 60°
2026-05-05 16:39 47.59392 10.66917 22584 ft 493 kts 60°
2026-05-05 16:39 47.61132 10.71210 22042 ft 479 kts 60°
2026-05-05 16:39 47.62826 10.75397 21517 ft 468 kts 60°
2026-05-05 16:39 47.64475 10.79492 20999 ft 458 kts 60°
2026-05-05 16:40 47.66089 10.83518 20499 ft 449 kts 60°
2026-05-05 16:40 47.67732 10.87412 19992 ft 442 kts 54°
2026-05-05 16:40 47.69767 10.90787 19502 ft 436 kts 42°
2026-05-05 16:40 47.72098 10.93618 19031 ft 431 kts 38°
2026-05-05 16:41 47.74431 10.96376 18586 ft 425 kts 38°
2026-05-05 16:41 47.76714 10.99079 18350 ft 414 kts 38°
2026-05-05 16:41 47.78963 11.01754 18111 ft 404 kts 38°
2026-05-05 16:41 47.81128 11.04334 17846 ft 394 kts 39°
2026-05-05 16:42 47.83244 11.06861 17572 ft 387 kts 39°
2026-05-05 16:42 47.85331 11.09356 17308 ft 384 kts 39°
2026-05-05 16:42 47.86707 11.10999 17134 ft 382 kts 39°
2026-05-05 16:42 47.88781 11.13472 16870 ft 381 kts 39°
2026-05-05 16:43 47.90844 11.15930 16609 ft 379 kts 38°
2026-05-05 16:43 47.92902 11.18378 16343 ft 378 kts 39°
2026-05-05 16:43 47.94952 11.20818 16092 ft 376 kts 39°
2026-05-05 16:43 47.96994 11.23245 15844 ft 375 kts 38°
2026-05-05 16:44 47.99032 11.25668 15592 ft 374 kts 39°
2026-05-05 16:44 48.01058 11.28090 15342 ft 372 kts 39°
2026-05-05 16:44 48.03072 11.30505 15096 ft 371 kts 39°
2026-05-05 16:44 48.05081 11.32919 14851 ft 370 kts 39°
2026-05-05 16:45 48.07081 11.35321 14610 ft 369 kts 39°
2026-05-05 16:45 48.09079 11.37723 14365 ft 367 kts 39°
2026-05-05 16:45 48.11063 11.40111 14128 ft 366 kts 39°
2026-05-05 16:45 48.13042 11.42493 13892 ft 364 kts 39°
2026-05-05 16:46 48.15016 11.44867 13645 ft 363 kts 39°
2026-05-05 16:46 48.17007 11.47261 13377 ft 362 kts 39°
2026-05-05 16:46 48.17759 11.48167 13277 ft 361 kts 39°
2026-05-05 16:46 48.19343 11.50073 13068 ft 360 kts 39°
2026-05-05 16:47 48.21221 11.52393 12806 ft 351 kts 44°
2026-05-05 16:47 48.22428 11.54444 12584 ft 344 kts 56°
2026-05-05 16:47 48.23202 11.56306 12427 ft 338 kts 64°
2026-05-05 16:47 48.24053 11.59548 12069 ft 332 kts 78°
2026-05-05 16:48 48.24418 11.62936 11696 ft 327 kts 86°
2026-05-05 16:48 48.24674 11.66316 11309 ft 325 kts 86°
2026-05-05 16:48 48.24932 11.69675 10936 ft 323 kts 86°
2026-05-05 16:48 48.25189 11.73011 10570 ft 321 kts 86°
2026-05-05 16:49 48.25445 11.76326 10204 ft 319 kts 86°
2026-05-05 16:49 48.25700 11.79617 9844 ft 316 kts 86°
2026-05-05 16:49 48.25954 11.82883 9462 ft 314 kts 86°
2026-05-05 16:49 48.26204 11.86124 9073 ft 312 kts 85°
2026-05-05 16:50 48.26449 11.89343 8677 ft 309 kts 85°
2026-05-05 16:50 48.26691 11.92530 8292 ft 306 kts 85°
2026-05-05 16:50 48.26930 11.95690 7918 ft 304 kts 85°
2026-05-05 16:50 48.27166 11.98824 7549 ft 301 kts 85°
2026-05-05 16:51 48.27399 12.01926 7169 ft 298 kts 85°
2026-05-05 16:51 48.27628 12.04999 6803 ft 295 kts 84°
2026-05-05 16:51 48.27859 12.08089 6431 ft 292 kts 84°
2026-05-05 16:51 48.28091 12.11065 6077 ft 289 kts 81°
2026-05-05 16:52 48.28800 12.13859 5820 ft 282 kts 55°
2026-05-05 16:52 48.30224 12.15785 5565 ft 274 kts 27°
2026-05-05 16:52 48.32029 12.16476 5312 ft 267 kts
2026-05-05 16:52 48.33863 12.16347 5081 ft 259 kts 355°
2026-05-05 16:53 48.35568 12.15912 4981 ft 246 kts 337°
2026-05-05 16:53 48.36876 12.14407 4984 ft 228 kts 304°
2026-05-05 16:53 48.37648 12.12370 4996 ft 222 kts 296°
2026-05-05 16:53 48.38311 12.10281 4998 ft 222 kts 295°
2026-05-05 16:54 48.38806 12.08102 4963 ft 221 kts 271°
2026-05-05 16:54 48.38686 12.05813 4669 ft 221 kts 260°
2026-05-05 16:54 48.38376 12.03543 4243 ft 227 kts 256°
2026-05-05 16:54 48.38019 12.01193 3814 ft 234 kts 261°
2026-05-05 16:55 48.37861 11.98752 3442 ft 236 kts 268°
2026-05-05 16:55 48.37816 11.96281 3092 ft 236 kts 268°
2026-05-05 16:55 48.37672 11.93836 2821 ft 233 kts 261°
2026-05-05 16:55 48.37387 11.91461 2584 ft 224 kts 261°
2026-05-05 16:56 48.37184 11.89217 2341 ft 211 kts 265°
2026-05-05 16:56 48.37082 11.87070 2073 ft 202 kts 265°
2026-05-05 16:56 48.36910 11.85084 1896 ft 184 kts 263°
2026-05-05 16:56 48.36763 11.83267 1814 ft 174 kts 266°
2026-05-05 16:57 48.36635 11.81291 2035 ft 206 kts 264°
2026-05-05 16:57 48.36457 11.78948 2279 ft 237 kts 263°
2026-05-05 16:57 48.36239 11.76393 2863 ft 252 kts 262°
2026-05-05 16:57 48.35982 11.73665 3452 ft 268 kts 262°
2026-05-05 16:58 48.35904 11.70905 3865 ft 263 kts 281°
2026-05-05 16:58 48.36628 11.68419 4284 ft 262 kts 310°
2026-05-05 16:58 48.38039 11.66777 4716 ft 263 kts 339°
2026-05-05 16:58 48.39821 11.66148 4956 ft 264 kts 357°
2026-05-05 16:59 48.41625 11.66524 5001 ft 262 kts 22°
2026-05-05 16:59 48.43050 11.67965 5005 ft 259 kts 51°
2026-05-05 16:59 48.43839 11.70174 5005 ft 257 kts 77°
2026-05-05 16:59 48.44139 11.72833 5006 ft 258 kts 84°
2026-05-05 17:00 48.44342 11.75520 5008 ft 258 kts 84°
2026-05-05 17:00 48.44528 11.78174 5003 ft 258 kts 84°
2026-05-05 17:00 48.44714 11.80866 5003 ft 258 kts 84°
2026-05-05 17:00 48.44898 11.83552 5004 ft 258 kts 84°
2026-05-05 17:01 48.45082 11.86239 5006 ft 259 kts 84°
2026-05-05 17:01 48.45265 11.88941 5003 ft 259 kts 84°
2026-05-05 17:01 48.45447 11.91637 5004 ft 259 kts 84°
2026-05-05 17:01 48.45625 11.94271 4998 ft 245 kts 84°
2026-05-05 17:02 48.45795 11.96778 5002 ft 238 kts 84°
2026-05-05 17:02 48.45961 11.99220 5000 ft 237 kts 84°
2026-05-05 17:02 48.46127 12.01692 4997 ft 237 kts 84°
2026-05-05 17:02 48.46293 12.04162 4998 ft 237 kts 84°
2026-05-05 17:03 48.46459 12.06643 4992 ft 237 kts 84°
2026-05-05 17:03 48.46568 12.09124 4974 ft 240 kts 96°
2026-05-05 17:03 48.46005 12.11423 4982 ft 236 kts 128°
2026-05-05 17:03 48.44716 12.12918 4984 ft 237 kts 160°
2026-05-05 17:04 48.43120 12.13413 4929 ft 232 kts 172°
2026-05-05 17:04 48.41529 12.13643 4689 ft 228 kts 174°
2026-05-05 17:04 48.39975 12.13778 4439 ft 226 kts 184°
2026-05-05 17:04 48.38542 12.12944 4190 ft 224 kts 223°
2026-05-05 17:05 48.37846 12.10945 4024 ft 216 kts 268°
2026-05-05 17:05 48.38195 12.08865 4028 ft 202 kts 298°
2026-05-05 17:05 48.38651 12.06898 4013 ft 200 kts 269°
2026-05-05 17:05 48.38413 12.04850 3997 ft 199 kts 260°
2026-05-05 17:06 48.38235 12.02786 3932 ft 199 kts 264°
2026-05-05 17:06 48.38088 12.00754 3745 ft 192 kts 264°
2026-05-05 17:06 48.37941 11.98773 3509 ft 189 kts 264°
2026-05-05 17:06 48.37797 11.96842 3278 ft 182 kts 264°
2026-05-05 17:07 48.37655 11.95020 3013 ft 175 kts 264°
2026-05-05 17:07 48.37522 11.93232 2804 ft 168 kts 264°
2026-05-05 17:07 48.37391 11.91500 2589 ft 165 kts 264°
2026-05-05 17:07 48.37266 11.89833 2459 ft 154 kts 265°
2026-05-05 17:08 48.37155 11.88269 2301 ft 148 kts 265°
2026-05-05 17:08 48.37036 11.86745 2080 ft 146 kts 264°
2026-05-05 17:08 48.36916 11.85246 1898 ft 143 kts 264°
2026-05-05 17:08 48.36802 11.83754 1729 ft 145 kts 265°
2026-05-05 17:09 48.36695 11.82232 1537 ft 146 kts 266°
2026-05-05 17:09 48.36590 11.80806 1486 ft 123 kts 264°
2026-05-05 17:09 48.36514 11.79800 1485 ft 77 kts 264°
2026-05-05 17:09 48.36465 11.79170 1474 ft 40 kts 264°
2026-05-05 17:10 48.36373 11.78847 1481 ft 32 kts 232°
2026-05-05 17:10 48.36240 11.78577 1483 ft 32 kts 234°
2026-05-05 17:10 48.36131 11.78472 1485 ft 14 kts 177°
2026-05-05 17:10 48.36042 11.78520 1485 ft 16 kts 131°
2026-05-05 17:11 48.36046 11.78710 1485 ft 20 kts 83°
2026-05-05 17:11 48.36063 11.78933 1480 ft 22 kts 84°
2026-05-05 17:11 48.36081 11.79172 1485 ft 23 kts 83°
2026-05-05 17:11 48.36070 11.79322 1477 ft 11 kts 150°
2026-05-05 17:12 48.36003 11.79330 1480 ft 9 kts 176°
2026-05-05 17:12 48.35946 11.79340 1480 ft 9 kts 173°
2026-05-05 17:12 48.35842 11.79387 1481 ft 22 kts 171°
2026-05-05 17:12 48.35794 11.79532 1485 ft 18 kts 82°
2026-05-05 17:13 48.35808 11.79727 1482 ft 20 kts 84°
2026-05-05 17:13 48.35825 11.79938 1485 ft 21 kts 83°
2026-05-05 17:13 48.35779 11.80072 1477 ft 13 kts 174°
2026-05-05 17:13 48.35695 11.80085 1482 ft 12 kts 166°
2026-05-05 17:14 48.35587 11.80110 1485 ft 17 kts 174°
2026-05-05 17:14 48.35482 11.80126 1481 ft 10 kts 173°
2026-05-05 17:14 48.35440 11.80123 1479 ft 8 kts 212°
2026-05-05 17:14 48.35425 11.80043 1485 ft 5 kts 266°
2026-05-05 17:15 48.35423 11.80022 1485 ft 0 kts 263°